EB1RD-13 Weather Reports


time (UTC)temp
C
wind
direction
speed
KPH
gust
KPH
rain 1hr
cm
rain 24hr
cm
rain mn
cm
humidity
%
barometer
mb
20260507085535 15 53 3.2 8.0 0.00 0.00 0.00 54 1011.1
20260507084533 17 38 3.2 9.7 0.00 0.00 0.00 50 1011.1
20260507083533 18 92 1.6 4.8 0.00 0.00 0.00 54 1011.2
20260507082531 16 45 0.0 3.2 0.00 0.00 0.00 58 1011.3
20260507081529 15 346 1.6 3.2 0.00 0.00 0.00 65 1011.3
20260507080526 13 45 0.0 3.2 0.00 0.00 0.00 69 1011.4
20260507075525 13 322 1.6 3.2 0.00 0.00 0.00 69 1011.5
20260507074542 13 193 1.6 6.4 0.00 0.00 0.00 74 1011.6
20260507073520 12 225 1.6 4.8 0.00 0.00 0.00 74 1011.7
20260507072518 12 155 1.6 4.8 0.00 0.00 0.00 77 1011.6
20260507071516 12 0.0 3.2 0.00 0.00 0.00 80 1011.7
20260507070614 11 180 0.0 3.2 0.00 0.00 0.00 82 1011.8
20260507065612 11 225 0.0 3.2 0.00 0.00 0.00 83 1011.6
20260507064610 11 68 0.0 3.2 0.00 0.00 0.00 85 1011.7
20260507063610 11 90 1.6 3.2 0.00 0.00 0.00 86 1011.8
20260507062606 11 225 0.0 3.2 0.00 0.00 0.00 87 1011.7
20260507061604 10 211 1.6 4.8 0.00 0.00 0.00 88 1011.7
20260507060602 9 203 3.2 4.8 0.00 0.00 0.00 88 1011.6
20260507055600 9 168 1.6 3.2 0.00 0.00 0.00 88 1011.6
20260507054558 9 235 3.2 6.4 0.00 0.00 0.00 88 1011.6
20260507053556 9 91 1.6 3.2 0.00 0.00 0.00 88 1011.5
20260507052554 9 127 0.0 3.2 0.00 0.00 0.00 88 1011.4
20260507051552 9 180 0.0 3.2 0.00 0.00 0.00 87 1011.5
20260507050550 8 200 1.6 3.2 0.00 0.00 0.00 87 1011.5
20260507045548 8 0.0 1.6 0.00 0.00 0.00 87 1011.4
20260507044546 8 214 0.0 3.2 0.00 0.00 0.00 87 1011.5
20260507043544 8 0.0 0.0 0.00 0.00 0.00 86 1011.6
20260507042602 8 135 0.0 3.2 0.00 0.00 0.00 86 1011.7
20260507041542 8 0.0 3.2 0.00 0.00 0.00 86 1011.7
20260507040538 8 90 3.2 3.2 0.00 0.00 0.00 86 1011.6
20260507035536 8 0.0 0.0 0.00 0.00 0.00 86 1011.8
20260507034554 8 45 1.6 3.2 0.00 0.00 0.00 85 1011.9
20260507033532 8 0.0 1.6 0.00 0.00 0.00 85 1011.9
20260507032532 8 90 0.0 3.2 0.00 0.00 0.00 85 1011.9
20260507031528 8 108 1.6 3.2 0.00 0.00 0.00 84 1012.0
20260507030647 9 90 0.0 3.2 0.00 0.00 0.00 84 1012.0
20260507025544 9 90 0.0 3.2 0.00 0.00 0.00 83 1012.0
20260507024522 9 102 1.6 4.8 0.00 0.00 0.00 83 1011.9
20260507023540 9 88 1.6 4.8 0.00 0.00 0.00 83 1012.1
20260507022518 10 98 1.6 3.2 0.00 0.00 0.00 83 1012.2
20260507021518 10 91 3.2 6.4 0.00 0.00 0.00 83 1012.4
20260507020615 10 135 3.2 3.2 0.00 0.00 0.00 81 1012.2
20260507015653 10 84 3.2 6.4 0.00 0.00 0.00 81 1012.1
20260507014611 10 0.0 0.0 0.00 0.00 0.00 80 1012.2
20260507013609 10 0.0 0.0 0.00 0.00 0.00 80 1012.4
20260507012727 10 0.0 0.0 0.00 0.00 0.00 80 1012.6
20260507011605 10 0.0 0.0 0.00 0.00 0.00 80 1012.7
20260507010603 10 0.0 0.0 0.00 0.00 0.00 80 1012.7
20260507005601 11 0.0 0.0 0.00 0.00 0.00 79 1012.7
20260507004559 11 0.0 1.6 0.00 0.00 0.00 77 1012.9
20260507003557 11 0.0 3.2 0.00 0.00 0.00 77 1013.0
20260507002555 11 68 0.0 3.2 0.00 0.00 0.00 76 1013.0
20260507001553 11 98 1.6 3.2 0.00 0.00 0.00 75 1013.1
20260507000551 11 45 1.6 3.2 0.00 0.00 0.00 75 1013.0
20260506235549 12 0.0 1.6 0.00 0.00 0.00 75 1013.2
20260506234547 12 0.0 1.6 0.00 0.00 0.00 73 1013.2
20260506233545 12 0.0 1.6 0.00 0.00 0.00 72 1013.4
20260506232543 12 0.0 1.6 0.00 0.00 0.00 72 1013.4
20260506231541 12 135 0.0 3.2 0.00 0.00 0.00 71 1013.5
20260506230539 12 0.0 1.6 0.00 0.00 0.00 71 1013.5
20260506225659 12 135 0.0 3.2 0.00 0.00 0.00 70 1013.5
20260506224535 12 0.0 3.2 0.00 0.00 0.00 71 1013.5
20260506223533 13 195 1.6 3.2 0.00 0.00 0.00 70 1013.5
20260506222551 13 113 0.0 3.2 0.00 0.00 0.00 70 1013.6
20260506221529 13 0.0 1.6 0.00 0.00 0.00 69 1013.9
20260506220527 13 0.0 1.6 0.00 0.00 0.00 68 1014.0
20260506215525 13 270 0.0 3.2 0.00 0.00 0.00 68 1014.0
20260506214543 13 0.0 1.6 0.00 0.00 0.00 68 1014.1
20260506213523 12 0.0 0.0 0.00 0.00 0.00 68 1014.1
20260506212519 12 0.0 1.6 0.00 0.00 0.00 68 1014.1
20260506211537 13 0.0 3.2 0.00 0.00 0.00 68 1014.1
20260506210535 13 90 0.0 3.2 0.00 0.00 0.00 68 1014.1
20260506205613 13 45 0.0 3.2 0.00 0.00 0.00 68 1014.0
20260506204611 13 56 0.0 3.2 0.00 0.00 0.00 68 1014.1
20260506203609 13 48 1.6 4.8 0.00 0.00 0.00 69 1014.1
20260506202608 13 65 1.6 3.2 0.00 0.00 0.00 69 1014.0
20260506201605 13 90 0.0 3.2 0.00 0.00 0.00 70 1014.0
20260506200603 13 90 1.6 3.2 0.00 0.00 0.00 69 1013.9
20260506195602 13 37 3.2 8.0 0.00 0.00 0.00 69 1013.9
20260506194620 13 77 1.6 3.2 0.00 0.00 0.00 69 1013.9
20260506193559 13 54 1.6 3.2 0.00 0.00 0.00 69 1013.9
20260506192556 13 31 3.2 6.4 0.00 0.00 0.00 68 1013.7
20260506191636 13 40 9.7 12.9 0.00 0.00 0.00 68 1013.7
20260506190552 13 15 4.8 9.7 0.00 0.00 0.00 67 1013.7
20260506185550 13 14 4.8 6.4 0.00 0.00 0.00 66 1013.6
20260506184548 13 56 6.4 9.7 0.00 0.00 0.00 64 1013.6
20260506183546 13 45 9.7 14.5 0.00 0.00 0.00 63 1013.5
20260506182544 13 32 9.7 16.1 0.00 0.00 0.00 61 1013.5
20260506181542 14 28 4.8 9.7 0.00 0.00 0.00 59 1013.6
20260506180540 14 45 6.4 12.9 0.00 0.00 0.00 58 1013.6
20260506175538 15 2 6.4 11.3 0.00 0.00 0.00 57 1013.6
20260506174536 15 42 6.4 9.7 0.00 0.00 0.00 54 1013.6
20260506173534 15 19 11.3 19.3 0.00 0.00 0.00 52 1013.5
20260506172533 15 326 6.4 12.9 0.00 0.00 0.00 51 1013.5
20260506171530 16 30 4.8 12.9 0.00 0.00 0.00 52 1013.4
20260506170548 16 350 6.4 12.9 0.00 0.00 0.00 51 1013.3
20260506165526 16 309 6.4 12.9 0.00 0.00 0.00 49 1013.3
20260506164524 16 309 6.4 12.9 0.00 0.00 0.00 48 1013.3
20260506163522 17 293 4.8 11.3 0.00 0.00 0.00 44 1013.4
20260506162520 18 38 8.0 14.5 0.00 0.00 0.00 43 1013.4
20260506161518 18 13 4.8 12.9 0.00 0.00 0.00 44 1013.2
20260506160516 17 139 8.0 12.9 0.00 0.00 0.00 42 1013.4
20260506155614 17 27 9.7 16.1 0.00 0.00 0.00 41 1013.4
20260506154612 17 318 6.4 12.9 0.00 0.00 0.00 42 1013.6
20260506153610 17 287 4.8 9.7 0.00 0.00 0.00 43 1013.5
20260506152628 17 295 8.0 16.1 0.00 0.00 0.00 45 1013.7
20260506151606 17 317 8.0 12.9 0.00 0.00 0.00 44 1013.7
20260506150604 17 348 8.0 14.5 0.00 0.00 0.00 45 1013.8
20260506145602 17 309 6.4 11.3 0.00 0.00 0.00 48 1013.9
20260506144600 17 135 8.0 16.1 0.00 0.00 0.00 49 1013.8
20260506143619 17 232 6.4 14.5 0.00 0.00 0.00 49 1013.9
20260506142557 17 303 4.8 12.9 0.00 0.00 0.00 44 1013.9
20260506141555 17 284 3.2 6.4 0.00 0.00 0.00 42 1013.9
20260506140552 18 0 3.2 4.8 0.00 0.00 0.00 42 1014.2
20260506135550 18 256 3.2 9.7 0.00 0.00 0.00 43 1014.3
20260506134549 18 225 4.8 11.3 0.00 0.00 0.00 42 1014.4
20260506133546 17 10 3.2 6.4 0.00 0.00 0.00 42 1014.6
20260506132544 17 315 3.2 6.4 0.00 0.00 0.00 44 1014.6
20260506131542 17 7 3.2 6.4 0.00 0.00 0.00 44 1014.6
20260506130541 17 270 3.2 4.8 0.00 0.00 0.00 46 1014.7
20260506125539 17 36 3.2 6.4 0.00 0.00 0.00 45 1014.8
20260506124537 17 16 3.2 8.0 0.00 0.00 0.00 48 1014.8
20260506123535 17 36 4.8 8.0 0.00 0.00 0.00 48 1014.9
20260506122533 17 316 4.8 11.3 0.00 0.00 0.00 46 1014.9
20260506121551 17 315 6.4 12.9 0.00 0.00 0.00 44 1015.0
20260506120529 18 90 9.7 14.5 0.00 0.00 0.00 43 1014.9
20260506115547 17 251 4.8 9.7 0.00 0.03 0.00 43 1015.0
20260506114546 17 14 6.4 12.9 0.00 0.05 0.00 42 1015.1
20260506113523 17 253 3.2 6.4 0.00 0.05 0.00 40 1015.1
20260506112521 17 45 4.8 6.4 0.00 0.05 0.00 40 1015.0
20260506111519 17 54 3.2 8.0 0.00 0.05 0.00 39 1015.1
20260506110517 18 352 3.2 6.4 0.00 0.05 0.00 42 1015.2
20260506105517 17 50 3.2 6.4 0.00 0.05 0.00 41 1015.2
20260506104613 17 60 3.2 6.4 0.00 0.05 0.00 42 1015.2
20260506103611 16 39 3.2 6.4 0.00 0.05 0.00 46 1015.3
20260506102609 16 28 3.2 9.7 0.00 0.05 0.00 44 1015.2
20260506101607 17 19 3.2 6.4 0.00 0.05 0.00 42 1015.2
20260506100605 16 0.0 1.6 0.00 0.05 0.00 48 1015.3
20260506095623 15 250 4.8 11.3 0.00 0.05 0.00 46 1015.3
20260506094601 15 216 3.2 6.4 0.00 0.05 0.00 48 1015.3
20260506093559 15 227 6.4 14.5 0.00 0.05 0.00 48 1015.2
20260506092557 15 175 1.6 8.0 0.00 0.05 0.00 51 1015.3
20260506091555 15 212 3.2 6.4 0.00 0.05 0.00 51 1015.2
20260506090613 14 121 3.2 6.4 0.00 0.05 0.00 53 1015.2